Weather History for KTMA - March, 2014

Change the Weather History Date:

Sunday, March 9, 2014

  Actual Average Record
Temperature  
Mean Temperature 58 °F -  
Max Temperature 80 °F 67 °F 80 °F (2014)
Min Temperature 46 °F 44 °F 46 °F (2014)
Degree Days  
Heating Degree Days 6    
Growing Degree Days 8 (Base 50)    
Moisture  
Dew Point 47 °F    
Average Humidity 66    
Maximum Humidity 97    
Minimum Humidity 39    
Precipitation  
Precipitation 0.00 in - - ()
Sea Level Pressure  
Sea Level Pressure 30.15 in    
Wind  
Wind Speed 3 mph (West)    
Max Wind Speed 10 mph    
Max Gust Speed -    
Visibility 10 miles    
Events      
Averages and records for this station are not official NWS values.
T = Trace of Precipitation, MM = Missing Value Source: NWS Daily Summary

Daily Weather History Graph

Daily Weather History Graph

Search for Another Location

Airport or City:

Trip Planner

Search our weather history database for the weather conditions in past years. The results will help you decide how hot, cold, wet, or windy it might be!

Date:

Astronomy

Mar. 09, 2014 Rise Set
Actual Time 7:51 AM EDT 7:37 PM EDT
Civil Twilight 7:27 AM EDT 8:02 PM EDT
Nautical Twilight 6:59 AM EDT 8:30 PM EDT
Astronomical Twilight 6:30 AM EDT 8:58 PM EDT
Moon 1:45 PM EDT (3/9) 3:00 AM EDT (3/9)
Length of Visible Light 12h 35m
Length of Day
11h 46m
First Quarter, 61% of the Moon is Illuminated
Mar 9
First Quarter
Mar 16
Full
Mar 23
Last Quarter
Mar 30
New
Apr 7
First Quarter

Hourly Weather History & Observations

Time (EDT) Temp. Dew Point Humidity Pressure Visibility Wind Dir Wind Speed Gust Speed Precip Events Conditions
12:15 AM 50.4 °F 45.7 °F 84% 30.16 in 10.0 mi Calm Calm - N/A   Clear
12:35 AM 51.3 °F 45.9 °F 82% 30.16 in 10.0 mi Calm Calm - N/A   Clear
12:55 AM 50.2 °F 45.3 °F 83% 30.16 in 10.0 mi Calm Calm - N/A   Clear
1:15 AM 46.8 °F 45.7 °F 96% 30.16 in 10.0 mi Calm Calm - N/A   Clear
1:35 AM 48.4 °F 46.8 °F 94% 30.16 in 10.0 mi West 4.6 mph - N/A   Clear
1:55 AM 51.3 °F 46.0 °F 82% 30.16 in 10.0 mi West 5.8 mph - N/A   Clear
3:15 AM 52.0 °F 45.7 °F 79% 30.16 in 10.0 mi West 5.8 mph - N/A   Clear
3:35 AM 52.0 °F 45.7 °F 79% 30.15 in 10.0 mi West 4.6 mph - N/A   Clear
3:55 AM 51.4 °F 45.5 °F 80% 30.14 in 10.0 mi West 4.6 mph - N/A   Clear
4:15 AM 50.9 °F 45.5 °F 82% 30.14 in 10.0 mi West 3.5 mph - N/A   Clear
4:35 AM 50.4 °F 45.5 °F 83% 30.14 in 10.0 mi WSW 4.6 mph - N/A   Clear
4:55 AM 50.4 °F 45.5 °F 83% 30.15 in 10.0 mi WSW 4.6 mph - N/A   Clear
5:15 AM 50.2 °F 45.5 °F 84% 30.14 in 10.0 mi West 3.5 mph - N/A   Clear
5:35 AM 49.8 °F 45.3 °F 84% 30.14 in 10.0 mi Calm Calm - N/A   Clear
5:55 AM 49.3 °F 45.3 °F 86% 30.14 in 10.0 mi Calm Calm - N/A   Clear
6:15 AM 49.3 °F 45.5 °F 87% 30.15 in 10.0 mi West 4.6 mph - N/A   Clear
6:35 AM 49.3 °F 45.5 °F 87% 30.16 in 10.0 mi Calm Calm - N/A   Clear
6:55 AM 48.9 °F 45.5 °F 88% 30.17 in 10.0 mi West 3.5 mph - N/A   Clear
7:15 AM 48.6 °F 46.2 °F 92% 30.17 in 10.0 mi WNW 3.5 mph - N/A   Clear
7:35 AM 48.4 °F 46.8 °F 94% 30.18 in 10.0 mi Calm Calm - N/A   Scattered Clouds
7:55 AM 48.0 °F 46.6 °F 95% 30.18 in 10.0 mi Calm Calm - N/A   Clear
8:15 AM 47.1 °F 46.0 °F 96% 30.19 in 10.0 mi Calm Calm - N/A   Clear
8:35 AM 48.0 °F 47.1 °F 97% 30.19 in 10.0 mi Calm Calm - N/A   Clear
8:55 AM 49.6 °F 48.0 °F 94% 30.19 in 10.0 mi West 3.5 mph - N/A   Clear
9:15 AM 51.4 °F 48.9 °F 91% 30.20 in 10.0 mi WNW 4.6 mph - N/A   Clear
9:35 AM 53.6 °F 48.6 °F 83% 30.21 in 10.0 mi WNW 5.8 mph - N/A   Clear
9:55 AM 55.2 °F 47.8 °F 76% 30.22 in 10.0 mi West 6.9 mph - N/A   Clear
10:15 AM 57.2 °F 48.0 °F 71% 30.22 in 10.0 mi WNW 5.8 mph - N/A   Clear
10:35 AM 59.2 °F 48.4 °F 67% 30.22 in 10.0 mi WNW 8.1 mph - N/A   Clear
10:55 AM 61.2 °F 48.7 °F 64% 30.21 in 10.0 mi NW 6.9 mph - N/A   Clear
11:15 AM 62.8 °F 48.6 °F 60% 30.21 in 10.0 mi NNW 10.4 mph - N/A   Clear
11:35 AM 63.7 °F 48.6 °F 58% 30.19 in 10.0 mi NW 6.9 mph - N/A   Clear
11:55 AM 64.6 °F 48.6 °F 56% 30.20 in 10.0 mi North 5.8 mph - N/A   Clear
12:15 PM 64.9 °F 48.4 °F 55% 30.20 in 10.0 mi NNW 8.1 mph - N/A   Clear
12:35 PM 66.2 °F 47.7 °F 51% 30.19 in 10.0 mi West 10.4 mph - N/A   Clear
12:55 PM 66.9 °F 47.3 °F 49% 30.19 in 10.0 mi NW 8.1 mph - N/A   Clear
1:15 PM 67.8 °F 47.7 °F 48% 30.18 in 10.0 mi WNW 6.9 mph - N/A   Scattered Clouds
1:35 PM 67.8 °F 46.8 °F 47% 30.17 in 10.0 mi WNW 4.6 mph - N/A   Clear
1:55 PM 68.5 °F 46.4 °F 45% 30.16 in - NW 4.6 mph - N/A   Clear
2:15 PM 68.9 °F 46.8 °F 45% 30.15 in 10.0 mi WSW 4.6 mph - N/A   Clear
2:35 PM 69.1 °F 46.6 °F 45% 30.14 in 10.0 mi Calm Calm - N/A   Clear
2:55 PM 69.8 °F 47.5 °F 45% 30.14 in 10.0 mi Calm Calm - N/A   Clear
3:15 PM 70.2 °F 47.3 °F 44% 30.13 in 10.0 mi SW 6.9 mph - N/A   Clear
3:30 PM 70.7 °F 47.1 °F 43% 30.12 in 10.0 mi WSW 8.1 mph - N/A   Clear
3:55 PM 70.5 °F 46.4 °F 42% 30.11 in 10.0 mi SSW 3.5 mph - N/A   Clear
4:15 PM 71.1 °F 46.4 °F 41% 30.11 in 10.0 mi SW 6.9 mph - N/A   Clear
4:35 PM 71.4 °F 46.2 °F 41% 30.11 in 10.0 mi West 4.6 mph - N/A   Clear
4:55 PM 71.8 °F 46.0 °F 40% 30.11 in 10.0 mi WSW 4.6 mph - N/A   Clear
5:15 PM 71.8 °F 45.7 °F 39% 30.10 in 10.0 mi West 5.8 mph - N/A   Clear
5:35 PM 71.6 °F 45.9 °F 40% 30.10 in 10.0 mi SW 6.9 mph - N/A   Clear
5:55 PM 71.8 °F 45.5 °F 39% 30.10 in 10.0 mi West 4.6 mph - N/A   Clear
6:15 PM 71.6 °F 45.7 °F 39% 30.10 in 10.0 mi West 3.5 mph - N/A   Scattered Clouds
6:35 PM 71.4 °F 45.7 °F 40% 30.10 in 10.0 mi WSW 5.8 mph - N/A   Clear
6:55 PM 70.5 °F 45.9 °F 41% 30.10 in 10.0 mi SW 3.5 mph - N/A   Clear
7:15 PM 69.1 °F 47.5 °F 46% 30.09 in 10.0 mi SW 3.5 mph - N/A   Clear
7:35 PM 68.0 °F 48.2 °F 49% 30.09 in 10.0 mi SSW 3.5 mph - N/A   Clear
7:55 PM 67.1 °F 48.4 °F 51% 30.09 in 10.0 mi Calm Calm - N/A   Clear
8:10 PM 66.0 °F 48.7 °F 54% 30.10 in 10.0 mi SSW 3.5 mph - N/A   Clear
8:35 PM 64.8 °F 49.3 °F 57% 30.10 in 10.0 mi Calm Calm - N/A   Clear
8:55 PM 63.5 °F 49.6 °F 61% 30.10 in 10.0 mi Calm Calm - N/A   Clear
9:15 PM 63.1 °F 49.6 °F 61% 30.10 in 10.0 mi Calm Calm - N/A   Clear
9:35 PM 62.6 °F 49.3 °F 62% 30.11 in 10.0 mi SW 3.5 mph - N/A   Clear
9:55 PM 62.1 °F 49.5 °F 63% 30.12 in 10.0 mi WSW 3.5 mph - N/A   Clear
10:15 PM 61.7 °F 49.3 °F 64% 30.12 in 10.0 mi Calm Calm - N/A   Clear
10:35 PM 60.4 °F 49.3 °F 67% 30.13 in 10.0 mi Calm Calm - N/A   Clear
10:55 PM 60.1 °F 49.1 °F 67% 30.13 in 10.0 mi Calm Calm - N/A   Clear
11:15 PM 59.9 °F 49.1 °F 67% 30.13 in 10.0 mi Calm Calm - N/A   Clear
11:35 PM 59.7 °F 48.7 °F 67% 30.13 in 10.0 mi WSW 3.5 mph - N/A   Clear
11:55 PM 59.2 °F 48.7 °F 68% 30.13 in 10.0 mi West 3.5 mph - N/A   Clear
12:15 AM 59.2 °F 48.7 °F 68% 30.13 in 10.0 mi Calm Calm - N/A   Clear
12:35 AM 58.8 °F 48.7 °F 69% 30.12 in 10.0 mi Calm Calm - N/A   Clear
12:55 AM 58.5 °F 48.9 °F 71% 30.12 in 10.0 mi Calm Calm - N/A   Clear